EW3230 Weather Reports


time (UTC)temp
C
wind
direction
speed
KPH
gust
KPH
rain 1hr
cm
rain 24hr
cm
rain mn
cm
humidity
%
barometer
mb
20260508045547 11 245 0.0 8.0 0.00 1.07 0.00 50 1007.9
20260508044547 11 316 0.0 11.3 0.00 1.07 0.00 50 1007.9
20260508043547 11 295 0.0 3.2 0.00 1.07 0.00 50 1007.9
20260508042546 11 257 0.0 3.2 0.00 1.07 0.00 51 1007.9
20260508041540 11 346 0.0 1.6 0.00 1.07 0.00 50 1007.9
20260508040540 11 260 0.0 3.2 0.00 1.07 0.00 50 1007.9
20260508035539 11 280 0.0 3.2 0.00 1.07 1.07 49 1008.0
20260508034541 11 287 0.0 6.4 0.00 1.07 1.07 49 1007.9
20260508033538 11 278 0.0 4.8 0.00 1.07 1.07 50 1008.0
20260508033040 11 283 0.0 3.2 0.00 1.07 1.07 50 1008.0
20260508031538 11 332 0.0 3.2 0.00 1.07 1.07 52 1008.0
20260508031040 10 258 0.0 3.2 0.00 1.07 1.07 54 1008.1
20260508025539 11 257 0.0 3.2 0.00 1.07 1.07 53 1008.2
20260508024535 11 274 0.0 1.6 0.00 1.07 1.07 52 1008.2
20260508023532 11 246 0.0 1.6 0.00 1.07 1.07 51 1008.0
20260508023034 11 258 0.0 1.6 0.00 1.07 1.07 51 1008.1
20260508021537 11 221 0.0 4.8 0.00 1.07 1.07 50 1008.2
20260508021034 11 274 0.0 6.4 0.00 1.07 1.07 50 1008.1
20260508020648 12 302 0.0 1.6 0.00 1.07 1.07 50 1008.0
20260508014534 12 235 0.0 1.6 0.00 1.07 1.07 50 1008.1
20260508013538 12 283 0.0 6.4 0.00 1.07 1.07 49 1007.8
20260508013033 12 284 0.0 3.2 0.00 1.07 1.07 49 1007.7
20260508011533 12 266 0.0 1.6 0.00 1.09 1.07 48 1007.6
20260508011527 12 246 0.0 1.6 0.00 1.07 1.07 48 1007.8
20260508005528 13 64 0.0 6.4 0.00 1.09 1.07 46 1007.5
20260508004532 13 269 0.0 9.7 0.00 1.09 1.07 43 1007.3
20260508004526 13 266 0.0 1.6 0.00 1.09 1.07 45 1007.4
20260508003028 13 286 0.0 4.8 0.00 1.09 1.07 42 1006.6
20260508001526 14 40 0.0 9.7 0.00 1.09 1.07 42 1006.5
20260508001028 14 289 0.0 6.4 0.00 1.12 1.07 42 1006.5
20260507235526 15 300 0.0 3.2 0.00 1.14 1.07 40 1006.3
20260507235025 15 293 1.6 11.3 0.00 1.17 1.07 40 1006.3
20260507233525 15 294 1.6 11.3 0.00 1.19 1.07 38 1006.3
20260507232525 16 287 1.6 8.0 0.00 1.22 1.07 37 1006.2
20260507231525 16 284 1.6 9.7 0.00 1.22 1.07 37 1005.9
20260507230522 16 276 1.6 6.4 0.00 1.24 1.07 37 1005.8
20260507225522 17 209 0.0 3.2 0.00 1.27 1.07 37 1005.6
20260507224528 17 277 1.6 9.7 0.00 1.30 1.07 35 1005.5
20260507224522 17 52 1.6 6.4 0.00 1.30 1.07 35 1005.6
20260507222523 17 331 1.6 9.7 0.00 1.32 1.07 34 1005.4
20260507222024 18 255 3.2 12.9 0.00 1.32 1.07 35 1005.3
20260507220523 18 91 1.6 11.3 0.00 1.32 1.07 34 1005.3
20260507215522 19 295 1.6 8.0 0.00 1.32 1.07 33 1005.2
20260507214523 19 86 3.2 12.9 0.00 1.32 1.07 36 1005.1
20260507214024 19 288 1.6 11.3 0.00 1.32 1.07 34 1005.1
20260507212522 20 355 1.6 9.7 0.00 1.32 1.07 32 1005.0
20260507211525 20 261 1.6 8.0 0.00 1.32 1.07 32 1004.9
20260507210523 19 148 1.6 11.3 0.00 1.32 1.07 32 1004.9
20260507205517 20 338 1.6 12.9 0.00 1.32 1.07 32 1004.8
20260507204518 20 284 3.2 12.9 0.00 1.32 1.07 34 1004.8
20260507203516 20 238 1.6 6.4 0.00 1.32 1.07 36 1004.8
20260507203018 20 148 0.0 6.4 0.00 1.32 1.07 34 1004.7
20260507202017 19 276 1.6 11.3 0.00 1.32 1.07 35 1004.8
20260507200517 19 215 3.2 12.9 0.00 1.32 1.07 36 1004.7
20260507195516 19 89 1.6 11.3 0.00 1.32 1.07 33 1004.8
20260507195017 19 281 3.2 11.3 0.00 1.32 1.07 36 1005.1
20260507193516 19 40 1.6 8.0 0.00 1.32 1.07 35 1005.2
20260507192510 18 47 1.6 11.3 0.00 1.32 1.07 36 1005.4
20260507191510 18 141 1.6 4.8 0.00 1.32 1.07 39 1005.6
20260507191013 18 215 3.2 12.9 0.00 1.32 1.07 38 1005.7
20260507185512 17 218 1.6 8.0 0.00 1.32 1.07 51 1005.8
20260507184510 18 293 1.6 4.8 0.00 1.32 1.07 47 1006.0
20260507183510 18 257 1.6 6.4 0.00 1.32 1.07 68 1006.1
20260507183013 17 221 1.6 4.8 0.00 1.32 1.07 68 1006.2
20260507181511 17 236 1.6 6.4 0.00 1.32 1.07 70 1006.4
20260507180510 16 135 3.2 6.4 0.00 1.32 1.07 74 1006.4
20260507175513 15 118 0.0 1.6 0.00 1.32 1.07 73 1006.7
20260507175505 15 85 1.6 9.7 0.00 1.32 1.07 73 1006.5
20260507173507 15 120 1.6 4.8 0.00 1.32 1.07 70 1006.8
20260507172505 16 214 1.6 9.7 0.00 1.32 1.07 70 1006.8
20260507171517 17 174 1.6 6.4 0.00 1.32 1.07 68 1007.0
20260507170505 17 246 1.6 8.0 0.00 1.32 1.07 58 1007.0
20260507165504 18 238 1.6 8.0 0.00 1.32 1.07 54 1007.1
20260507164504 18 276 1.6 8.0 0.00 1.32 1.07 55 1007.2
20260507163504 18 239 1.6 8.0 0.00 1.32 1.07 57 1007.2
20260507163003 17 252 0.0 6.4 0.00 1.32 1.07 61 1007.3
20260507161459 16 205 1.6 6.4 0.00 1.32 1.07 65 1007.3
20260507160458 16 214 1.6 8.0 0.00 1.32 1.07 65 1007.6
20260507155458 16 335 1.6 8.0 0.00 1.32 1.07 68 1007.8
20260507155000 15 315 0.0 3.2 0.00 1.32 1.07 69 1007.8
20260507154003 15 69 0.0 6.4 0.00 1.32 1.07 70 1008.0
20260507152459 15 309 1.6 9.7 0.00 1.32 1.07 71 1008.1
20260507151459 15 229 3.2 11.3 0.00 1.32 1.07 74 1008.1
20260507150459 14 250 1.6 8.0 0.00 1.32 1.07 72 1008.2
20260507145459 13 302 1.6 8.0 0.00 1.32 1.07 78 1008.3
20260507145453 14 296 1.6 8.0 0.00 1.32 1.07 74 1008.0
20260507143454 13 232 0.0 4.8 0.00 1.32 1.07 79 1008.1
20260507142451 12 63 1.6 6.4 0.00 1.32 1.07 81 1008.3
20260507141453 12 276 1.6 6.4 0.00 1.32 1.07 81 1008.5
20260507140454 12 262 1.6 6.4 0.00 1.32 1.07 79 1008.5
20260507135452 11 268 0.0 4.8 0.00 1.32 1.07 75 1008.6
20260507134454 11 290 0.0 4.8 0.00 1.32 1.07 73 1008.3
20260507133454 10 163 0.0 3.2 0.00 1.32 1.07 73 1008.5
20260507132447 10 272 0.0 1.6 0.03 1.32 1.07 74 1008.7
20260507131947 10 293 0.0 3.2 0.03 1.32 1.07 73 1008.4
20260507130446 10 321 0.0 1.6 0.05 1.32 1.07 73 1008.6
20260507125945 9 304 0.0 1.6 0.08 1.32 1.07 72 1008.4
20260507124945 9 253 0.0 3.2 0.08 1.32 1.07 71 1008.6
20260507123444 9 6 0.0 1.6 0.08 1.32 1.07 69 1008.5
20260507122446 9 110 0.0 1.6 0.08 1.30 1.04 70 1008.8
20260507121948 9 291 0.0 1.6 0.10 1.30 1.04 69 1008.7
20260507120445 8 308 0.0 1.6 0.08 1.27 1.02 69 1008.4
20260507115442 8 302 0.0 1.6 0.08 1.24 0.99 70 1008.7
20260507114438 8 304 0.0 1.6 0.08 1.24 0.99 70 1008.5
20260507113439 8 291 0.0 3.2 0.10 1.24 0.99 71 1008.6
20260507112438 8 256 0.0 1.6 0.08 1.22 0.97 70 1008.6
20260507111438 8 295 1.6 8.0 0.08 1.19 0.94 70 1008.9
20260507110439 9 285 0.0 4.8 0.10 1.19 0.94 70 1007.8
20260507105940 9 316 0.0 4.8 0.10 1.17 0.94 70 1007.7
20260507104439 9 309 0.0 3.2 0.10 1.17 0.91 69 1007.8
20260507103438 10 56 1.6 6.4 0.10 1.14 0.89 69 1007.9
20260507102432 10 278 0.0 6.4 0.13 1.14 0.89 67 1007.7
20260507101433 10 276 0.0 4.8 0.15 1.12 0.86 67 1007.9
20260507100432 10 308 0.0 3.2 0.15 1.09 0.84 67 1007.2
20260507095432 10 319 1.6 6.4 0.15 1.07 0.81 67 1007.4
20260507094934 10 50 0.0 4.8 0.20 1.07 0.81 66 1007.4
20260507093433 11 284 0.0 4.8 0.20 1.04 0.79 66 1007.1
20260507092933 11 52 0.0 3.2 0.28 1.02 0.76 65 1007.2
20260507091433 11 322 1.6 6.4 0.43 0.97 0.71 65 1007.1
20260507090435 11 342 0.0 1.6 0.66 0.94 0.69 65 1007.1
20260507085429 12 275 0.0 6.4 0.66 0.91 0.66 65 1007.4
20260507084428 12 290 0.0 3.2 0.61 0.86 0.61 64 1006.8
20260507083430 12 210 0.0 4.8 0.48 0.74 0.48 64 1007.1
20260507083426 12 297 0.0 1.6 0.56 0.81 0.58 64 1006.9
20260507081427 12 255 0.0 3.2 0.28 0.53 0.30 64 1007.4
20260507080427 12 197 0.0 1.6 0.03 0.28 0.03 64 1006.6
20260507075427 12 221 0.0 0.0 0.00 0.25 0.00 64 1006.2
20260507074427 12 221 0.0 0.0 0.00 0.25 0.00 64 1006.2
20260507073426 12 221 0.0 0.0 0.00 0.25 0.00 64 1006.1
20260507072922 12 221 0.0 0.0 0.00 0.25 0.00 64 1006.2
20260507071420 12 221 0.0 0.0 0.00 0.25 0.00 64 1006.2
20260507070420 12 221 0.0 0.0 0.00 0.25 0.00 64 1006.2
20260507065420 12 221 0.0 0.0 0.00 0.25 0.00 64 1006.4
20260507064420 12 221 0.0 1.6 0.00 0.25 0.00 64 1006.3
20260507063922 12 221 0.0 1.6 0.00 0.25 0.00 65 1006.3
20260507062420 12 221 0.0 1.6 0.00 0.25 0.00 65 1006.3
20260507061422 12 221 0.0 1.6 0.00 0.25 0.00 65 1006.8
20260507060421 12 221 0.0 1.6 0.00 0.25 0.00 65 1006.6
20260507055416 12 255 0.0 1.6 0.00 0.25 0.00 65 1006.8
20260507054916 12 123 0.0 1.6 0.00 0.25 0.00 65 1006.7
20260507053414 12 170 0.0 1.6 0.00 0.25 0.00 65 1007.1
20260507052414 12 130 0.0 1.6 0.00 0.25 0.00 65 1007.3
20260507051415 12 268 0.0 1.6 0.00 0.25 0.00 65 1007.3
20260507050415 12 197 0.0 1.6 0.00 0.25 0.00 65 1007.3